Time,TemperatureF,DewpointF,PressureIn,WindDirection,WindDirectionDegrees,WindSpeedMPH,WindSpeedGustMPH,Humidity,HourlyPrecipIn,Conditions,Clouds,dailyrainin,SoftwareType,DateUTC
2013-09-23 00:01:00,50.1,44.5,30.01,WNW,282,2.0,6.0,81,0.00,,,0.00,WUHU216DAVISVP2,2013-09-23 04:01:00,
2013-09-23 00:09:00,50.1,44.5,30.01,West,262,2.0,4.0,81,0.00,,,0.00,WUHU216DAVISVP2,2013-09-23 04:09:00,
2013-09-23 00:10:00,50.1,44.5,30.01,West,266,1.0,4.0,81,0.00,,,0.00,WUHU216DAVISVP2,2013-09-23 04:10:00,
2013-09-23 00:12:00,50.1,44.5,30.01,NW,304,2.0,5.0,81,0.00,,,0.00,WUHU216DAVISVP2,2013-09-23 04:12:00,
2013-09-23 00:17:00,50.1,44.5,30.01,WNW,283,1.0,7.0,81,0.00,,,0.00,WUHU216DAVISVP2,2013-09-23 04:17:00,
2013-09-23 00:26:00,50.1,44.5,30.01,West,278,2.0,7.0,81,0.00,,,0.00,WUHU216DAVISVP2,2013-09-23 04:26:00,
2013-09-23 00:35:00,50.1,44.8,30.01,WNW,287,3.0,6.0,82,0.00,,,0.00,WUHU216DAVISVP2,2013-09-23 04:35:00,
2013-09-23 00:45:00,50.2,44.6,30.01,NNW,335,2.0,7.0,81,0.00,,,0.00,WUHU216DAVISVP2,2013-09-23 04:45:00,
2013-09-23 00:53:00,50.2,44.9,30.01,West,273,0.0,8.0,82,0.00,,,0.00,WUHU216DAVISVP2,2013-09-23 04:53:00,
2013-09-23 01:02:00,50.2,44.9,30.02,West,259,2.0,8.0,82,0.00,,,0.00,WUHU216DAVISVP2,2013-09-23 05:02:00,
2013-09-23 01:11:00,50.2,44.9,30.01,WNW,285,1.0,6.0,82,0.00,,,0.00,WUHU216DAVISVP2,2013-09-23 05:11:00,
2013-09-23 01:21:00,50.2,44.9,30.02,WSW,256,1.0,6.0,82,0.00,,,0.00,WUHU216DAVISVP2,2013-09-23 05:21:00,
2013-09-23 01:29:00,50.1,44.8,30.02,NW,316,1.0,6.0,82,0.00,,,0.00,WUHU216DAVISVP2,2013-09-23 05:29:00,
2013-09-23 01:38:00,50.1,44.8,30.02,WSW,252,1.0,5.0,82,0.00,,,0.00,WUHU216DAVISVP2,2013-09-23 05:38:00,
2013-09-23 01:47:00,50.2,45.2,30.02,West,275,0.0,5.0,83,0.00,,,0.00,WUHU216DAVISVP2,2013-09-23 05:47:00,
2013-09-23 01:56:00,50.1,45.1,30.02,West,271,0.0,4.0,83,0.00,,,0.00,WUHU216DAVISVP2,2013-09-23 05:56:00,
2013-09-23 02:04:00,50.1,45.1,30.02,NW,314,1.0,5.0,83,0.00,,,0.00,WUHU216DAVISVP2,2013-09-23 06:04:00,
2013-09-23 02:13:00,50.2,45.2,30.02,WNW,300,2.0,5.0,83,0.00,,,0.00,WUHU216DAVISVP2,2013-09-23 06:13:00,
2013-09-23 02:22:00,50.1,45.5,30.02,West,280,1.0,4.0,84,0.00,,,0.00,WUHU216DAVISVP2,2013-09-23 06:22:00,
2013-09-23 02:30:00,50.1,45.5,30.02,WNW,297,1.0,4.0,84,0.00,,,0.00,WUHU216DAVISVP2,2013-09-23 06:30:00,
2013-09-23 02:39:00,50.0,45.7,30.02,NNW,334,1.0,4.0,85,0.00,,,0.00,WUHU216DAVISVP2,2013-09-23 06:39:00,
2013-09-23 02:48:00,50.0,45.7,30.03,NW,322,2.0,6.0,85,0.00,,,0.00,WUHU216DAVISVP2,2013-09-23 06:48:00,
2013-09-23 02:56:00,49.9,45.6,30.03,NW,326,3.0,8.0,85,0.00,,,0.00,WUHU216DAVISVP2,2013-09-23 06:56:00,
2013-09-23 03:03:00,50.0,46.0,30.03,ENE,66,2.0,8.0,86,0.00,,,0.00,WUHU216DAVISVP2,2013-09-23 07:03:00,
2013-09-23 03:13:00,49.9,45.9,30.03,ENE,60,0.0,8.0,86,0.00,,,0.00,WUHU216DAVISVP2,2013-09-23 07:13:00,
2013-09-23 03:19:00,50.0,46.0,30.03,NNE,20,3.0,7.0,86,0.00,,,0.00,WUHU216DAVISVP2,2013-09-23 07:19:00,
2013-09-23 03:27:00,50.0,46.0,30.04,NNE,15,0.0,4.0,86,0.00,,,0.00,WUHU216DAVISVP2,2013-09-23 07:27:00,
2013-09-23 03:35:00,49.9,46.2,30.03,NW,304,0.0,3.0,87,0.00,,,0.00,WUHU216DAVISVP2,2013-09-23 07:35:00,
2013-09-23 03:44:00,49.8,46.1,30.04,NW,304,0.0,1.0,87,0.00,,,0.00,WUHU216DAVISVP2,2013-09-23 07:44:00,
2013-09-23 03:52:00,49.7,46.3,30.04,NW,304,0.0,1.0,88,0.00,,,0.00,WUHU216DAVISVP2,2013-09-23 07:52:00,
2013-09-23 03:57:00,49.6,46.2,30.04,NW,304,0.0,1.0,88,0.00,,,0.00,WUHU216DAVISVP2,2013-09-23 07:57:00,
2013-09-23 04:02:00,49.6,46.5,30.04,NW,307,1.0,1.0,89,0.00,,,0.00,WUHU216DAVISVP2,2013-09-23 08:02:00,
2013-09-23 04:08:00,49.6,46.5,30.04,NW,310,0.0,3.0,89,0.00,,,0.00,WUHU216DAVISVP2,2013-09-23 08:08:00,
2013-09-23 04:14:00,49.6,46.5,30.05,WNW,285,1.0,3.0,89,0.00,,,0.00,WUHU216DAVISVP2,2013-09-23 08:14:00,
2013-09-23 04:21:00,49.5,46.4,30.04,NNW,336,0.0,3.0,89,0.00,,,0.00,WUHU216DAVISVP2,2013-09-23 08:21:00,
2013-09-23 04:31:00,49.5,46.7,30.04,North,360,2.0,2.0,90,0.00,,,0.00,WUHU216DAVISVP2,2013-09-23 08:31:00,
2013-09-23 04:40:00,49.5,46.7,30.05,NNE,33,2.0,4.0,90,0.00,,,0.00,WUHU216DAVISVP2,2013-09-23 08:40:00,
2013-09-23 04:49:00,49.5,46.4,30.05,NW,323,1.0,4.0,89,0.00,,,0.00,WUHU216DAVISVP2,2013-09-23 08:49:00,
2013-09-23 04:54:00,49.6,46.5,30.05,NW,314,1.0,4.0,89,0.00,,,0.00,WUHU216DAVISVP2,2013-09-23 08:54:00,
2013-09-23 04:59:00,49.6,46.5,30.05,WNW,300,0.0,3.0,89,0.00,,,0.00,WUHU216DAVISVP2,2013-09-23 08:59:00,
2013-09-23 05:05:00,49.5,46.4,30.05,NNW,333,1.0,3.0,89,0.00,,,0.00,WUHU216DAVISVP2,2013-09-23 09:05:00,
2013-09-23 05:14:00,49.5,45.8,30.06,NW,326,1.0,4.0,87,0.00,,,0.00,WUHU216DAVISVP2,2013-09-23 09:14:00,
2013-09-23 05:23:00,49.6,45.3,30.06,North,360,1.0,4.0,85,0.00,,,0.00,WUHU216DAVISVP2,2013-09-23 09:23:00,
2013-09-23 05:32:00,49.6,45.0,30.06,NNE,27,0.0,4.0,84,0.00,,,0.00,WUHU216DAVISVP2,2013-09-23 09:32:00,
2013-09-23 05:41:00,49.6,45.0,30.06,West,269,3.0,4.0,84,0.00,,,0.00,WUHU216DAVISVP2,2013-09-23 09:41:00,
2013-09-23 05:50:00,49.6,44.6,30.06,NW,316,1.0,5.0,83,0.00,,,0.00,WUHU216DAVISVP2,2013-09-23 09:50:00,
2013-09-23 05:59:00,49.6,44.3,30.06,NNE,27,0.0,5.0,82,0.00,,,0.00,WUHU216DAVISVP2,2013-09-23 09:59:00,
2013-09-23 06:08:00,49.5,44.2,30.06,NW,314,2.0,4.0,82,0.00,,,0.00,WUHU216DAVISVP2,2013-09-23 10:08:00,
2013-09-23 06:17:00,49.5,44.2,30.07,NW,323,2.0,5.0,82,0.00,,,0.00,WUHU216DAVISVP2,2013-09-23 10:17:00,
2013-09-23 06:25:00,49.4,44.1,30.07,North,9,1.0,7.0,82,0.00,,,0.00,WUHU216DAVISVP2,2013-09-23 10:25:00,
2013-09-23 06:35:00,49.3,44.1,30.08,WNW,295,2.0,7.0,82,0.00,,,0.00,WUHU216DAVISVP2,2013-09-23 10:35:00,
2013-09-23 06:44:00,49.3,44.1,30.08,NW,304,1.0,6.0,82,0.00,,,0.00,WUHU216DAVISVP2,2013-09-23 10:44:00,
2013-09-23 06:53:00,49.2,44.0,30.08,NW,316,2.0,6.0,82,0.00,,,0.00,WUHU216DAVISVP2,2013-09-23 10:53:00,
2013-09-23 07:01:00,48.9,44.0,30.08,NW,325,2.0,6.0,83,0.00,,,0.00,WUHU216DAVISVP2,2013-09-23 11:01:00,
2013-09-23 07:10:00,48.7,43.8,30.08,NNW,345,1.0,4.0,83,0.00,,,0.00,WUHU216DAVISVP2,2013-09-23 11:10:00,
2013-09-23 07:19:00,48.7,43.8,30.09,NW,321,2.0,6.0,83,0.00,,,0.00,WUHU216DAVISVP2,2013-09-23 11:19:00,
2013-09-23 07:29:00,48.8,43.3,30.09,NW,312,3.0,7.0,81,0.00,,,0.00,WUHU216DAVISVP2,2013-09-23 11:29:00,
2013-09-23 07:37:00,49.0,43.4,30.10,NW,310,2.0,7.0,81,0.00,,,0.00,WUHU216DAVISVP2,2013-09-23 11:37:00,
2013-09-23 07:46:00,49.2,43.3,30.10,North,6,2.0,6.0,80,0.00,,,0.00,WUHU216DAVISVP2,2013-09-23 11:46:00,
2013-09-23 07:56:00,49.4,43.5,30.10,NNW,331,3.0,8.0,80,0.00,,,0.00,WUHU216DAVISVP2,2013-09-23 11:56:00,
2013-09-23 08:04:00,49.4,43.5,30.10,NNW,345,5.0,8.0,80,0.00,,,0.00,WUHU216DAVISVP2,2013-09-23 12:04:00,
2013-09-23 08:14:00,49.6,43.4,30.10,NW,316,6.0,8.0,79,0.00,,,0.00,WUHU216DAVISVP2,2013-09-23 12:14:00,
2013-09-23 08:23:00,49.7,43.1,30.10,North,1,1.0,8.0,78,0.00,,,0.00,WUHU216DAVISVP2,2013-09-23 12:23:00,
2013-09-23 08:31:00,49.9,43.4,30.11,WNW,297,2.0,9.0,78,0.00,,,0.00,WUHU216DAVISVP2,2013-09-23 12:31:00,
2013-09-23 08:40:00,50.2,43.3,30.11,NE,37,5.0,9.0,77,0.00,,,0.00,WUHU216DAVISVP2,2013-09-23 12:40:00,
2013-09-23 08:50:00,50.4,43.1,30.11,NW,326,1.0,10.0,76,0.00,,,0.00,WUHU216DAVISVP2,2013-09-23 12:50:00,
2013-09-23 08:59:00,50.5,42.9,30.11,North,353,2.0,10.0,75,0.00,,,0.00,WUHU216DAVISVP2,2013-09-23 12:59:00,
2013-09-23 09:07:00,50.5,42.6,30.11,ENE,63,4.0,9.0,74,0.00,,,0.00,WUHU216DAVISVP2,2013-09-23 13:07:00,
2013-09-23 09:16:00,50.6,42.7,30.11,NW,321,2.0,11.0,74,0.00,,,0.00,WUHU216DAVISVP2,2013-09-23 13:16:00,
2013-09-23 09:25:00,50.8,42.9,30.12,NE,41,6.0,11.0,74,0.00,,,0.00,WUHU216DAVISVP2,2013-09-23 13:25:00,
2013-09-23 09:34:00,50.7,42.4,30.12,NW,305,4.0,12.0,73,0.00,,,0.00,WUHU216DAVISVP2,2013-09-23 13:34:00,
2013-09-23 09:42:00,50.6,42.4,30.12,NNW,345,7.0,13.0,73,0.00,,,0.00,WUHU216DAVISVP2,2013-09-23 13:42:00,
2013-09-23 09:51:00,50.6,42.7,30.12,NNE,25,6.0,13.0,74,0.00,,,0.00,WUHU216DAVISVP2,2013-09-23 13:51:00,
2013-09-23 10:01:00,51.0,43.1,30.12,NNE,19,6.0,10.0,74,0.00,,,0.00,WUHU216DAVISVP2,2013-09-23 14:01:00,
2013-09-23 10:09:00,51.2,42.6,30.13,NW,316,3.0,11.0,72,0.00,,,0.00,WUHU216DAVISVP2,2013-09-23 14:09:00,
2013-09-23 10:18:00,51.6,42.6,30.13,NNW,333,5.0,11.0,71,0.00,,,0.00,WUHU216DAVISVP2,2013-09-23 14:18:00,
2013-09-23 10:27:00,51.7,42.7,30.13,WNW,297,7.0,12.0,71,0.00,,,0.00,WUHU216DAVISVP2,2013-09-23 14:27:00,
2013-09-23 10:36:00,51.6,41.9,30.13,NW,316,2.0,12.0,69,0.00,,,0.00,WUHU216DAVISVP2,2013-09-23 14:36:00,
2013-09-23 10:45:00,51.7,42.3,30.14,NW,314,4.0,11.0,70,0.00,,,0.00,WUHU216DAVISVP2,2013-09-23 14:45:00,
2013-09-23 10:54:00,52.2,41.7,30.14,NNW,331,8.0,11.0,67,0.00,,,0.00,WUHU216DAVISVP2,2013-09-23 14:54:00,
2013-09-23 11:03:00,52.5,41.6,30.14,NW,314,5.0,11.0,66,0.00,,,0.00,WUHU216DAVISVP2,2013-09-23 15:03:00,
2013-09-23 11:11:00,53.4,42.0,30.14,NE,41,6.0,11.0,65,0.00,,,0.00,WUHU216DAVISVP2,2013-09-23 15:11:00,
2013-09-23 11:20:00,53.6,41.8,30.14,WNW,303,9.0,11.0,64,0.00,,,0.00,WUHU216DAVISVP2,2013-09-23 15:20:00,
2013-09-23 11:29:00,52.9,42.0,30.14,NE,44,5.0,11.0,66,0.00,,,0.00,WUHU216DAVISVP2,2013-09-23 15:29:00,
2013-09-23 11:39:00,52.8,41.9,30.14,NNW,327,3.0,11.0,66,0.00,,,0.00,WUHU216DAVISVP2,2013-09-23 15:39:00,
2013-09-23 11:47:00,53.1,42.2,30.14,North,11,7.0,11.0,66,0.00,,,0.00,WUHU216DAVISVP2,2013-09-23 15:47:00,
2013-09-23 11:56:00,53.6,41.8,30.14,NNE,21,5.0,12.0,64,0.00,,,0.00,WUHU216DAVISVP2,2013-09-23 15:56:00,
2013-09-23 12:05:00,53.6,43.0,30.14,North,354,6.0,12.0,67,0.00,,,0.00,WUHU216DAVISVP2,2013-09-23 16:05:00,
2013-09-23 12:14:00,53.6,42.6,30.14,NNE,17,3.0,10.0,66,0.00,,,0.00,WUHU216DAVISVP2,2013-09-23 16:14:00,
2013-09-23 12:23:00,53.3,42.7,30.14,NNE,25,6.0,10.0,67,0.00,,,0.00,WUHU216DAVISVP2,2013-09-23 16:23:00,
2013-09-23 12:33:00,53.6,42.2,30.14,NNE,13,5.0,10.0,65,0.00,,,0.00,WUHU216DAVISVP2,2013-09-23 16:33:00,
2013-09-23 12:42:00,54.0,43.4,30.14,WNW,300,6.0,10.0,67,0.00,,,0.00,WUHU216DAVISVP2,2013-09-23 16:42:00,
2013-09-23 12:51:00,54.4,42.6,30.14,SW,229,2.0,10.0,64,0.00,,,0.00,WUHU216DAVISVP2,2013-09-23 16:51:00,
2013-09-23 12:59:00,54.3,43.3,30.14,NW,314,4.0,10.0,66,0.00,,,0.00,WUHU216DAVISVP2,2013-09-23 16:59:00,
2013-09-23 13:09:00,54.7,43.7,30.14,NW,315,3.0,9.0,66,0.00,,,0.00,WUHU216DAVISVP2,2013-09-23 17:09:00,
2013-09-23 13:18:00,54.3,43.3,30.14,NE,39,4.0,9.0,66,0.00,,,0.00,WUHU216DAVISVP2,2013-09-23 17:18:00,
2013-09-23 13:27:00,54.1,43.1,30.14,NW,326,2.0,10.0,66,0.00,,,0.00,WUHU216DAVISVP2,2013-09-23 17:27:00,
2013-09-23 13:34:00,54.0,44.2,30.14,WSW,257,2.0,11.0,69,0.00,,,0.00,WUHU216DAVISVP2,2013-09-23 17:34:00,
2013-09-23 13:40:00,54.4,42.2,30.14,WNW,302,2.0,11.0,63,0.00,,,0.00,WUHU216DAVISVP2,2013-09-23 17:40:00,
2013-09-23 13:46:00,54.6,42.7,30.14,North,1,2.0,11.0,64,0.00,,,0.00,WUHU216DAVISVP2,2013-09-23 17:46:00,
2013-09-23 13:53:00,54.3,42.8,30.14,NW,320,3.0,9.0,65,0.00,,,0.00,WUHU216DAVISVP2,2013-09-23 17:53:00,
2013-09-23 14:02:00,55.1,43.1,30.13,NW,305,4.0,11.0,64,0.00,,,0.00,WUHU216DAVISVP2,2013-09-23 18:02:00,
2013-09-23 14:10:00,54.8,42.0,30.13,North,6,3.0,11.0,62,0.00,,,0.00,WUHU216DAVISVP2,2013-09-23 18:10:00,
2013-09-23 14:19:00,54.5,42.2,30.13,NE,34,6.0,11.0,63,0.00,,,0.00,WUHU216DAVISVP2,2013-09-23 18:19:00,
2013-09-23 14:28:00,55.7,43.7,30.12,NNW,345,3.0,11.0,64,0.00,,,0.00,WUHU216DAVISVP2,2013-09-23 18:28:00,
2013-09-23 14:37:00,56.3,43.4,30.12,WSW,238,5.0,10.0,62,0.00,,,0.00,WUHU216DAVISVP2,2013-09-23 18:37:00,
2013-09-23 14:46:00,57.4,44.1,30.12,NNW,336,5.0,11.0,61,0.00,,,0.00,WUHU216DAVISVP2,2013-09-23 18:46:00,
2013-09-23 14:54:00,57.1,42.9,30.12,NW,314,5.0,11.0,59,0.00,,,0.00,WUHU216DAVISVP2,2013-09-23 18:54:00,
2013-09-23 14:59:00,56.3,42.6,30.12,NE,36,8.0,10.0,60,0.00,,,0.00,WUHU216DAVISVP2,2013-09-23 18:59:00,
2013-09-23 15:04:00,55.7,42.9,30.12,NW,322,3.0,9.0,62,0.00,,,0.00,WUHU216DAVISVP2,2013-09-23 19:04:00,
2013-09-23 15:11:00,55.7,42.9,30.12,West,270,1.0,9.0,62,0.00,,,0.00,WUHU216DAVISVP2,2013-09-23 19:11:00,
2013-09-23 15:21:00,55.8,42.5,30.12,WNW,290,4.0,15.0,61,0.00,,,0.00,WUHU216DAVISVP2,2013-09-23 19:21:00,
2013-09-23 15:31:00,57.2,44.0,30.12,NW,314,4.0,15.0,61,0.00,,,0.00,WUHU216DAVISVP2,2013-09-23 19:31:00,
2013-09-23 15:38:00,56.7,43.9,30.12,NW,322,1.0,10.0,62,0.00,,,0.00,WUHU216DAVISVP2,2013-09-23 19:38:00,
2013-09-23 15:48:00,57.0,43.4,30.11,NNE,18,5.0,10.0,60,0.00,,,0.00,WUHU216DAVISVP2,2013-09-23 19:48:00,
2013-09-23 15:57:00,57.3,42.7,30.11,WNW,297,2.0,11.0,58,0.00,,,0.00,WUHU216DAVISVP2,2013-09-23 19:57:00,
2013-09-23 16:05:00,57.2,43.1,30.12,NNE,12,2.0,11.0,59,0.00,,,0.00,WUHU216DAVISVP2,2013-09-23 20:05:00,
2013-09-23 16:15:00,57.1,43.0,30.11,NNW,342,3.0,10.0,59,0.00,,,0.00,WUHU216DAVISVP2,2013-09-23 20:15:00,
2013-09-23 16:23:00,57.2,43.6,30.11,NW,322,4.0,10.0,60,0.00,,,0.00,WUHU216DAVISVP2,2013-09-23 20:23:00,
2013-09-23 16:33:00,56.8,43.6,30.11,NW,321,5.0,10.0,61,0.00,,,0.00,WUHU216DAVISVP2,2013-09-23 20:33:00,
2013-09-23 16:41:00,56.6,43.4,30.11,SW,225,3.0,12.0,61,0.00,,,0.00,WUHU216DAVISVP2,2013-09-23 20:41:00,
2013-09-23 16:51:00,57.1,43.9,30.11,NNW,343,3.0,13.0,61,0.00,,,0.00,WUHU216DAVISVP2,2013-09-23 20:51:00,
2013-09-23 17:01:00,56.8,43.2,30.11,NNW,333,2.0,13.0,60,0.00,,,0.00,WUHU216DAVISVP2,2013-09-23 21:01:00,
2013-09-23 17:10:00,56.7,43.5,30.12,NNE,30,6.0,13.0,61,0.00,,,0.00,WUHU216DAVISVP2,2013-09-23 21:10:00,
2013-09-23 17:18:00,56.6,44.3,30.12,NW,325,2.0,13.0,63,0.00,,,0.00,WUHU216DAVISVP2,2013-09-23 21:18:00,
2013-09-23 17:27:00,56.3,44.0,30.12,WNW,296,1.0,9.0,63,0.00,,,0.00,WUHU216DAVISVP2,2013-09-23 21:27:00,
2013-09-23 17:36:00,56.2,43.9,30.12,North,11,3.0,10.0,63,0.00,,,0.00,WUHU216DAVISVP2,2013-09-23 21:36:00,
2013-09-23 17:41:00,56.1,44.2,30.13,NNE,25,6.0,10.0,64,0.00,,,0.00,WUHU216DAVISVP2,2013-09-23 21:41:00,
2013-09-23 17:51:00,55.8,44.3,30.13,NE,39,2.0,11.0,65,0.00,,,0.00,WUHU216DAVISVP2,2013-09-23 21:51:00,
2013-09-23 17:59:00,55.4,44.4,30.13,NE,37,4.0,11.0,66,0.00,,,0.00,WUHU216DAVISVP2,2013-09-23 21:59:00,
2013-09-23 18:08:00,55.2,44.6,30.13,NNW,345,2.0,10.0,67,0.00,,,0.00,WUHU216DAVISVP2,2013-09-23 22:08:00,
2013-09-23 18:17:00,54.8,44.2,30.14,NW,319,2.0,10.0,67,0.00,,,0.00,WUHU216DAVISVP2,2013-09-23 22:17:00,
2013-09-23 18:26:00,54.3,44.1,30.14,NNE,25,3.0,10.0,68,0.00,,,0.00,WUHU216DAVISVP2,2013-09-23 22:26:00,
2013-09-23 18:34:00,53.7,44.1,30.14,NW,326,2.0,7.0,70,0.00,,,0.00,WUHU216DAVISVP2,2013-09-23 22:34:00,
2013-09-23 18:42:00,53.1,44.3,30.13,North,353,1.0,7.0,72,0.00,,,0.00,WUHU216DAVISVP2,2013-09-23 22:42:00,
2013-09-23 18:51:00,52.6,44.3,30.13,NNE,13,2.0,6.0,73,0.00,,,0.00,WUHU216DAVISVP2,2013-09-23 22:51:00,
2013-09-23 18:58:00,52.1,44.2,30.13,North,358,2.0,5.0,74,0.00,,,0.00,WUHU216DAVISVP2,2013-09-23 22:58:00,
2013-09-23 19:03:00,51.7,44.1,30.13,NNW,342,1.0,5.0,75,0.00,,,0.00,WUHU216DAVISVP2,2013-09-23 23:03:00,
2013-09-23 19:08:00,51.3,44.1,30.13,North,355,0.0,5.0,76,0.00,,,0.00,WUHU216DAVISVP2,2013-09-23 23:08:00,
2013-09-23 19:13:00,51.0,44.1,30.13,NNW,341,0.0,5.0,77,0.00,,,0.00,WUHU216DAVISVP2,2013-09-23 23:13:00,
2013-09-23 19:18:00,50.7,44.1,30.14,NNW,340,0.0,3.0,78,0.00,,,0.00,WUHU216DAVISVP2,2013-09-23 23:18:00,
2013-09-23 19:23:00,50.4,44.2,30.13,NW,310,0.0,2.0,79,0.00,,,0.00,WUHU216DAVISVP2,2013-09-23 23:23:00,
2013-09-23 19:28:00,50.0,44.1,30.13,NW,309,0.0,2.0,80,0.00,,,0.00,WUHU216DAVISVP2,2013-09-23 23:28:00,
2013-09-23 19:33:00,49.6,44.0,30.13,NW,309,0.0,2.0,81,0.00,,,0.00,WUHU216DAVISVP2,2013-09-23 23:33:00,
2013-09-23 19:38:00,49.1,43.9,30.13,NW,309,0.0,2.0,82,0.00,,,0.00,WUHU216DAVISVP2,2013-09-23 23:38:00,
2013-09-23 19:43:00,48.7,43.8,30.13,NW,309,0.0,1.0,83,0.00,,,0.00,WUHU216DAVISVP2,2013-09-23 23:43:00,
2013-09-23 19:48:00,48.5,43.9,30.13,NW,309,0.0,1.0,84,0.00,,,0.00,WUHU216DAVISVP2,2013-09-23 23:48:00,
2013-09-23 19:53:00,48.2,43.9,30.13,NW,309,0.0,0.0,85,0.00,,,0.00,WUHU216DAVISVP2,2013-09-23 23:53:00,
2013-09-23 19:58:00,47.9,43.9,30.13,NW,309,0.0,0.0,86,0.00,,,0.00,WUHU216DAVISVP2,2013-09-23 23:58:00,
2013-09-23 20:03:00,47.6,43.6,30.13,NW,309,0.0,0.0,86,0.00,,,0.00,WUHU216DAVISVP2,2013-09-24 00:03:00,
2013-09-23 20:08:00,47.3,43.9,30.13,NW,309,0.0,0.0,88,0.00,,,0.00,WUHU216DAVISVP2,2013-09-24 00:08:00,
2013-09-23 20:13:00,47.0,43.9,30.13,NW,309,0.0,0.0,89,0.00,,,0.00,WUHU216DAVISVP2,2013-09-24 00:13:00,
2013-09-23 20:18:00,46.7,43.6,30.13,NW,309,0.0,0.0,89,0.00,,,0.00,WUHU216DAVISVP2,2013-09-24 00:18:00,
2013-09-23 20:23:00,46.6,43.8,30.14,NW,309,0.0,0.0,90,0.00,,,0.00,WUHU216DAVISVP2,2013-09-24 00:23:00,
2013-09-23 20:28:00,46.4,43.6,30.14,NW,309,0.0,0.0,90,0.00,,,0.00,WUHU216DAVISVP2,2013-09-24 00:28:00,
2013-09-23 20:33:00,46.2,43.4,30.14,NW,309,0.0,0.0,90,0.00,,,0.00,WUHU216DAVISVP2,2013-09-24 00:33:00,
2013-09-23 20:38:00,46.3,43.8,30.14,WSW,242,0.0,1.0,91,0.00,,,0.00,WUHU216DAVISVP2,2013-09-24 00:38:00,
2013-09-23 20:43:00,46.3,43.5,30.13,WSW,243,0.0,1.0,90,0.00,,,0.00,WUHU216DAVISVP2,2013-09-24 00:43:00,
2013-09-23 20:48:00,46.0,43.2,30.13,WSW,242,0.0,1.0,90,0.00,,,0.00,WUHU216DAVISVP2,2013-09-24 00:48:00,
2013-09-23 20:53:00,45.6,43.1,30.13,WSW,242,0.0,1.0,91,0.00,,,0.00,WUHU216DAVISVP2,2013-09-24 00:53:00,
2013-09-23 20:58:00,45.5,43.3,30.13,WSW,242,0.0,0.0,92,0.00,,,0.00,WUHU216DAVISVP2,2013-09-24 00:58:00,
2013-09-23 21:03:00,45.7,43.5,30.14,WSW,242,0.0,0.0,92,0.00,,,0.00,WUHU216DAVISVP2,2013-09-24 01:03:00,
2013-09-23 21:08:00,45.8,43.6,30.14,WSW,242,0.0,0.0,92,0.00,,,0.00,WUHU216DAVISVP2,2013-09-24 01:08:00,
2013-09-23 21:13:00,45.6,43.4,30.13,WSW,242,0.0,0.0,92,0.00,,,0.00,WUHU216DAVISVP2,2013-09-24 01:13:00,
2013-09-23 21:18:00,45.4,42.9,30.13,WSW,243,0.0,0.0,91,0.00,,,0.00,WUHU216DAVISVP2,2013-09-24 01:18:00,
2013-09-23 21:23:00,45.3,43.1,30.13,WSW,243,0.0,0.0,92,0.00,,,0.00,WUHU216DAVISVP2,2013-09-24 01:23:00,
2013-09-23 21:28:00,45.3,43.1,30.13,WSW,242,0.0,0.0,92,0.00,,,0.00,WUHU216DAVISVP2,2013-09-24 01:28:00,
2013-09-23 21:33:00,45.1,42.9,30.13,WSW,242,0.0,0.0,92,0.00,,,0.00,WUHU216DAVISVP2,2013-09-24 01:33:00,
2013-09-23 21:38:00,44.8,42.6,30.14,WSW,242,0.0,0.0,92,0.00,,,0.00,WUHU216DAVISVP2,2013-09-24 01:38:00,
2013-09-23 21:43:00,44.7,43.0,30.13,WSW,242,0.0,1.0,94,0.00,,,0.00,WUHU216DAVISVP2,2013-09-24 01:43:00,
2013-09-23 21:48:00,44.9,43.2,30.13,WSW,242,0.0,1.0,94,0.00,,,0.00,WUHU216DAVISVP2,2013-09-24 01:48:00,
2013-09-23 21:53:00,44.8,43.1,30.13,WSW,242,0.0,1.0,94,0.00,,,0.00,WUHU216DAVISVP2,2013-09-24 01:53:00,
2013-09-23 21:58:00,44.7,42.8,30.14,WSW,242,0.0,1.0,93,0.00,,,0.00,WUHU216DAVISVP2,2013-09-24 01:58:00,
2013-09-23 22:03:00,44.4,42.5,30.14,WSW,242,0.0,0.0,93,0.00,,,0.00,WUHU216DAVISVP2,2013-09-24 02:03:00,
2013-09-23 22:08:00,44.1,42.2,30.14,WSW,242,0.0,0.0,93,0.00,,,0.00,WUHU216DAVISVP2,2013-09-24 02:08:00,
2013-09-23 22:13:00,44.0,42.6,30.14,WSW,242,0.0,0.0,95,0.00,,,0.00,WUHU216DAVISVP2,2013-09-24 02:13:00,
2013-09-23 22:18:00,44.2,42.8,30.14,WSW,242,0.0,0.0,95,0.00,,,0.00,WUHU216DAVISVP2,2013-09-24 02:18:00,
2013-09-23 22:23:00,44.3,43.0,30.14,WSW,242,0.0,0.0,95,0.00,,,0.00,WUHU216DAVISVP2,2013-09-24 02:23:00,
2013-09-23 22:28:00,44.2,42.9,30.14,WSW,242,0.0,0.0,95,0.00,,,0.00,WUHU216DAVISVP2,2013-09-24 02:28:00,
2013-09-23 22:33:00,44.4,43.1,30.14,WSW,242,0.0,0.0,95,0.00,,,0.00,WUHU216DAVISVP2,2013-09-24 02:33:00,
2013-09-23 22:38:00,44.4,43.1,30.14,WSW,242,0.0,0.0,95,0.00,,,0.00,WUHU216DAVISVP2,2013-09-24 02:38:00,
2013-09-23 22:43:00,44.5,43.4,30.14,WSW,242,0.0,0.0,96,0.00,,,0.00,WUHU216DAVISVP2,2013-09-24 02:43:00,
2013-09-23 22:48:00,44.5,43.4,30.14,WSW,242,0.0,0.0,96,0.00,,,0.00,WUHU216DAVISVP2,2013-09-24 02:48:00,
2013-09-23 22:53:00,44.5,43.4,30.14,WSW,242,0.0,0.0,96,0.00,,,0.00,WUHU216DAVISVP2,2013-09-24 02:53:00,
2013-09-23 22:59:00,44.5,43.4,30.14,WSW,241,0.0,0.0,96,0.00,,,0.00,WUHU216DAVISVP2,2013-09-24 02:59:00,
2013-09-23 23:04:00,44.5,43.4,30.14,WSW,242,0.0,0.0,96,0.00,,,0.00,WUHU216DAVISVP2,2013-09-24 03:04:00,
2013-09-23 23:09:00,44.2,42.8,30.14,WSW,242,0.0,0.0,95,0.00,,,0.00,WUHU216DAVISVP2,2013-09-24 03:09:00,
2013-09-23 23:14:00,43.9,42.5,30.14,WSW,242,0.0,0.0,95,0.00,,,0.00,WUHU216DAVISVP2,2013-09-24 03:14:00,
2013-09-23 23:19:00,43.6,42.2,30.14,WSW,242,0.0,0.0,95,0.00,,,0.00,WUHU216DAVISVP2,2013-09-24 03:19:00,
2013-09-23 23:24:00,43.6,42.5,30.14,WSW,242,0.0,0.0,96,0.00,,,0.00,WUHU216DAVISVP2,2013-09-24 03:24:00,
2013-09-23 23:29:00,43.4,42.3,30.14,WSW,241,0.0,0.0,96,0.00,,,0.00,WUHU216DAVISVP2,2013-09-24 03:29:00,
2013-09-23 23:34:00,43.2,42.1,30.14,WSW,242,0.0,0.0,96,0.00,,,0.00,WUHU216DAVISVP2,2013-09-24 03:34:00,
2013-09-23 23:39:00,42.9,41.8,30.14,WSW,242,0.0,0.0,96,0.00,,,0.00,WUHU216DAVISVP2,2013-09-24 03:39:00,
2013-09-23 23:44:00,42.7,41.6,30.14,WSW,242,0.0,0.0,96,0.00,,,0.00,WUHU216DAVISVP2,2013-09-24 03:44:00,
2013-09-23 23:49:00,42.9,42.1,30.14,WSW,242,0.0,0.0,97,0.00,,,0.00,WUHU216DAVISVP2,2013-09-24 03:49:00,
2013-09-23 23:54:00,43.1,42.3,30.14,SW,226,1.0,1.0,97,0.00,,,0.00,WUHU216DAVISVP2,2013-09-24 03:54:00,
2013-09-23 23:59:00,43.3,42.5,30.14,SW,218,0.0,1.0,97,0.00,,,0.00,WUHU216DAVISVP2,2013-09-24 03:59:00,